Whiteville, NC

5:51 PM EDT on July 22, 2017 (GMT -0400)
Columbus County Municipal

Weather History for KCPC - February, 2013

Change the Weather History Date:

Sunday, February 10, 2013

  Actual Average (KCRE) Record (KCRE)
Temperature  
Mean Temperature 46 °F -  
Max Temperature 62 °F 54 °F 76 °F (1950)
Min Temperature 29 °F 37 °F 20 °F (1989)
Degree Days  
Heating Degree Days 20    
Moisture  
Dew Point 36 °F    
Average Humidity 74    
Maximum Humidity 96    
Minimum Humidity 39    
Precipitation  
Precipitation 0.01 in - - ()
Sea Level Pressure  
Sea Level Pressure 30.36 in    
Wind  
Wind Speed 2 mph (East)    
Max Wind Speed 9 mph    
Max Gust Speed -    
Visibility 10 miles    
Events Rain    
Averages and records for this station are not official NWS values.
T = Trace of Precipitation, MM = Missing Value Source: NWS Daily Summary

Daily Weather History Graph

Daily Weather History Graph

Search for Another Location

Airport or City:

Trip Planner

Search our weather history database for the weather conditions in past years. The results will help you decide how hot, cold, wet, or windy it might be!

Date:

Astronomy

Feb. 10, 2013 Rise Set
Actual Time 7:04 AM EST 5:54 PM EST
Civil Twilight 6:38 AM EST 6:19 PM EST
Nautical Twilight 6:09 AM EST 6:49 PM EST
Astronomical Twilight 5:39 AM EST 7:18 PM EST
Moon 6:56 AM EST (2/10) 6:38 PM EST (2/10)
Length of Visible Light 11h 41m
Length of Day
10h 49m
New Moon, 0% of the Moon is Illuminated
Feb 10
New Moon
Feb 17
First Quarter
Feb 25
Full
Mar 4
Last Quarter
Mar 11
New

Hourly Weather History & Observations

Time (EST) Temp. Windchill Dew Point Humidity Pressure Visibility Wind Dir Wind Speed Gust Speed Precip Events Conditions
12:15 AM 33.8 °F - 31.8 °F 92% 30.37 in 10.0 mi Calm Calm - N/A   Clear
12:35 AM 33.1 °F - 30.6 °F 90% 30.37 in 10.0 mi Calm Calm - N/A   Clear
12:55 AM 32.0 °F - 29.8 °F 92% 30.36 in 10.0 mi Calm Calm - N/A   Clear
1:15 AM 32.0 °F - 30.2 °F 93% 30.37 in 10.0 mi Calm Calm - N/A   Clear
1:35 AM 32.0 °F - 30.4 °F 94% 30.37 in 10.0 mi Calm Calm - N/A   Clear
1:55 AM 32.0 °F - 29.8 °F 92% 30.37 in 10.0 mi Calm Calm - N/A   Clear
2:15 AM 32.0 °F - 29.5 °F 90% 30.37 in 10.0 mi Calm Calm - N/A   Clear
2:35 AM 30.7 °F - 28.9 °F 93% 30.38 in 10.0 mi Calm Calm - N/A   Clear
2:55 AM 30.4 °F - 28.9 °F 94% 30.37 in 10.0 mi Calm Calm - N/A   Clear
3:15 AM 30.9 °F - 29.7 °F 95% 30.37 in 10.0 mi Calm Calm - N/A   Clear
3:35 AM 31.1 °F - 29.8 °F 95% 30.37 in 10.0 mi Calm Calm - N/A   Clear
3:55 AM 31.8 °F - 30.6 °F 95% 30.37 in 10.0 mi Calm Calm - N/A   Clear
4:15 AM 31.1 °F - 29.7 °F 94% 30.37 in 10.0 mi Calm Calm - N/A   Clear
4:35 AM 30.7 °F - 29.7 °F 96% 30.38 in 10.0 mi Calm Calm - N/A   Clear
4:55 AM 30.9 °F - 29.8 °F 96% 30.38 in 10.0 mi Calm Calm - N/A   Clear
5:15 AM 29.3 °F - 28.2 °F 96% 30.38 in 7.0 mi Calm Calm - N/A   Clear
5:35 AM 30.0 °F - 29.1 °F 96% 30.39 in 10.0 mi Calm Calm - N/A   Clear
5:55 AM 30.2 °F - 29.3 °F 96% 30.39 in 10.0 mi Calm Calm - N/A   Clear
6:15 AM 30.2 °F - 29.3 °F 96% 30.40 in 10.0 mi Calm Calm - N/A   Clear
6:35 AM 29.1 °F - 27.9 °F 95% 30.40 in 10.0 mi Calm Calm - N/A   Clear
6:55 AM 29.3 °F - 27.9 °F 94% 30.41 in 10.0 mi Calm Calm - N/A   Clear
7:15 AM 29.8 °F - 28.4 °F 94% 30.41 in 10.0 mi Calm Calm - N/A   Clear
7:35 AM 30.2 °F - 29.1 °F 96% 30.43 in 10.0 mi Calm Calm - N/A   Clear
7:55 AM 30.4 °F 26.9 °F 29.1 °F 95% 30.42 in 10.0 mi NE 3.5 mph - N/A   Clear
8:15 AM 35.1 °F 32.2 °F 30.6 °F 84% 30.45 in 10.0 mi NNE 3.5 mph - N/A   Clear
8:35 AM 38.3 °F 33.9 °F 31.6 °F 77% 30.44 in 10.0 mi ENE 5.8 mph - N/A   Clear
8:55 AM 38.7 °F 34.3 °F 30.6 °F 73% 30.44 in 10.0 mi ENE 5.8 mph - N/A   Clear
9:15 AM 39.6 °F 36.3 °F 31.8 °F 74% 30.45 in 10.0 mi NE 4.6 mph - N/A   Clear
9:35 AM 40.5 °F 38.4 °F 31.6 °F 71% 30.46 in 10.0 mi NNE 3.5 mph - N/A   Clear
9:55 AM 43.2 °F 41.5 °F 32.9 °F 67% 30.47 in 10.0 mi East 3.5 mph - N/A   Clear
10:15 AM 45.7 °F 42.7 °F 33.4 °F 62% 30.47 in 10.0 mi ENE 5.8 mph - N/A   Clear
10:35 AM 47.8 °F - 33.1 °F 57% 30.47 in 10.0 mi ENE 6.9 mph - N/A   Clear
10:55 AM 50.0 °F - 33.8 °F 54% 30.45 in 10.0 mi ENE 8.1 mph - N/A   Clear
11:15 AM 51.6 °F - 30.9 °F 45% 30.44 in 10.0 mi ESE 9.2 mph - N/A   Clear
11:35 AM 52.7 °F - 31.8 °F 45% 30.46 in 10.0 mi East 5.8 mph - N/A   Clear
11:55 AM 53.4 °F - 33.3 °F 46% 30.45 in 10.0 mi East 6.9 mph - N/A   Clear
12:15 PM 54.3 °F - 33.3 °F 45% 30.43 in 10.0 mi ENE 9.2 mph - N/A   Clear
12:35 PM 55.2 °F - 33.8 °F 44% 30.43 in 10.0 mi NNE 3.5 mph - N/A   Clear
1:15 PM 57.2 °F - 34.0 °F 42% 30.40 in 10.0 mi East 6.9 mph - N/A   Clear
1:35 PM 59.0 °F - 35.2 °F 41% 30.38 in 10.0 mi East 6.9 mph - N/A   Clear
1:55 PM 59.2 °F - 35.6 °F 41% 30.36 in 10.0 mi East 6.9 mph - N/A   Clear
2:15 PM 60.1 °F - 34.9 °F 39% 30.37 in 10.0 mi SE 8.1 mph - N/A   Scattered Clouds
2:35 PM 59.7 °F - 36.0 °F 41% 30.36 in 10.0 mi ESE 3.5 mph - N/A   Scattered Clouds
2:55 PM 61.0 °F - 37.9 °F 42% 30.34 in 10.0 mi ESE 9.2 mph - N/A   Scattered Clouds
3:15 PM 61.7 °F - 39.4 °F 44% 30.32 in 10.0 mi SSE 8.1 mph - N/A   Scattered Clouds
3:35 PM 62.1 °F - 41.0 °F 46% 30.32 in 10.0 mi SSE 8.1 mph - N/A   Scattered Clouds
3:55 PM 61.7 °F - 42.3 °F 49% 30.32 in 10.0 mi East 6.9 mph - N/A   Mostly Cloudy
4:15 PM 60.8 °F - 42.3 °F 50% 30.32 in 10.0 mi SE 8.1 mph - N/A   Mostly Cloudy
4:35 PM 59.5 °F - 42.1 °F 52% 30.32 in 10.0 mi East 8.1 mph - N/A   Scattered Clouds
4:55 PM 59.0 °F - 42.8 °F 55% 30.32 in 10.0 mi ESE 4.6 mph - N/A   Scattered Clouds
5:15 PM 58.5 °F - 43.2 °F 57% 30.31 in 10.0 mi ESE 3.5 mph - N/A   Mostly Cloudy
5:35 PM 57.7 °F - 43.2 °F 58% 30.31 in 10.0 mi East 5.8 mph - N/A   Mostly Cloudy
5:55 PM 56.7 °F - 43.3 °F 61% 30.32 in 10.0 mi East 5.8 mph - N/A   Mostly Cloudy
6:15 PM 55.6 °F - 43.2 °F 63% 30.29 in 10.0 mi East 6.9 mph - N/A   Scattered Clouds
6:35 PM 54.5 °F - 43.3 °F 66% 30.29 in 10.0 mi East 6.9 mph - N/A   Mostly Cloudy
6:55 PM 53.6 °F - 43.3 °F 68% 30.30 in 10.0 mi ESE 8.1 mph - N/A   Mostly Cloudy
7:15 PM 52.7 °F - 43.7 °F 71% 30.30 in 10.0 mi East 6.9 mph - N/A   Mostly Cloudy
7:35 PM 51.8 °F - 43.9 °F 74% 30.29 in 10.0 mi East 4.6 mph - N/A   Scattered Clouds
7:55 PM 51.4 °F - 44.4 °F 77% 30.29 in 10.0 mi East 3.5 mph - N/A   Scattered Clouds
8:15 PM 50.9 °F - 44.6 °F 79% 30.28 in 10.0 mi East 5.8 mph - N/A   Scattered Clouds
8:35 PM 51.1 °F - 45.7 °F 82% 30.28 in 10.0 mi East 8.1 mph - N/A   Scattered Clouds
8:55 PM 51.1 °F - 46.4 °F 84% 30.27 in 10.0 mi East 5.8 mph - N/A   Scattered Clouds
9:15 PM 50.9 °F - 46.4 °F 85% 30.28 in 10.0 mi East 5.8 mph - N/A   Scattered Clouds
9:35 PM 50.4 °F - 46.6 °F 87% 30.25 in 10.0 mi East 9.2 mph - N/A   Scattered Clouds
9:55 PM 50.5 °F - 46.8 °F 87% 30.27 in 10.0 mi ENE 4.6 mph - N/A   Clear
10:15 PM 50.9 °F - 47.1 °F 87% 30.29 in 10.0 mi Calm Calm - N/A   Mostly Cloudy
10:35 PM 50.9 °F - 47.3 °F 87% 30.29 in 10.0 mi Calm Calm - N/A   Mostly Cloudy
10:55 PM 50.9 °F - 47.3 °F 87% 30.29 in 10.0 mi NE 4.6 mph - N/A   Scattered Clouds
11:15 PM 51.1 °F - 47.5 °F 87% 30.30 in 10.0 mi Calm Calm - N/A   Scattered Clouds
11:35 PM 50.9 °F - 47.7 °F 89% 30.30 in 7.0 mi Calm Calm - N/A Rain Rain
11:55 PM 50.0 °F - 48.2 °F 94% 30.29 in 10.0 mi NE 4.6 mph - 0.01 in Rain Light Rain